Weather History for Akron, CO

Change the Weather History Date:

Friday, February 8, 2013

  Actual Average Record
Temperature  
Mean Temperature 43 °F 30 °F  
Max Temperature 56 °F 41 °F 71 °F (1943)
Min Temperature 29 °F 18 °F -10 °F (1989)
Degree Days  
Heating Degree Days 22    
Month to date heating degree days 206  
Cooling Degree Days 0    
Month to date cooling degree days 0  
Moisture  
Dew Point 18 °F    
Average Humidity 41    
Maximum Humidity 59    
Minimum Humidity 22    
Precipitation  
Precipitation 0.00 in 0.01 in 0.21 in (1942)
Month to date precipitation T 0.11  
Year to date precipitation 0.03 0.41  
Sea Level Pressure  
Sea Level Pressure 29.85 in    
Wind  
Wind Speed 16 mph (South)    
Max Wind Speed 28 mph    
Max Gust Speed 35 mph    
Visibility 10 miles    
Events      
T = Trace of Precipitation, MM = Missing Value Source: NWS Daily Summary

Daily Weather History Graph

Daily Weather History Graph

Search for Another Location

Airport:

Trip Planner

Search our weather history database for the weather conditions in past years. The results will help you decide how hot, cold, wet, or windy it might be!

Date:

Astronomy

Feb. 08, 2013 Rise Set
Actual Time 6:54 AM MST 5:20 PM MST
Civil Twilight 6:25 AM MST 5:48 PM MST
Nautical Twilight 5:53 AM MST 6:20 PM MST
Astronomical Twilight 5:22 AM MST 6:52 PM MST
Moon 5:24 AM MST (2/8) 3:56 PM MST (2/8)
Length of Visible Light 11h 22m
Length of Day
10h 26m
Waning Crescent, 3% of the Moon is Illuminated
Feb 8
Waning Crescent
Feb 10
New
Feb 17
First Quarter
Feb 25
Full
Mar 4
Last Quarter

Hourly Weather History & Observations

Time (MST) Temp. Windchill Dew Point Humidity Pressure Visibility Wind Dir Wind Speed Gust Speed Precip Events Conditions
1:53 AM 32.0 °F 21.2 °F 15.1 °F 50% 30.06 in 10.0 mi South 16.1 mph - N/A   Clear
2:53 AM 28.9 °F 19.8 °F 14.0 °F 54% 30.04 in 10.0 mi South 10.4 mph - N/A   Clear
3:53 AM 32.0 °F 22.5 °F 16.0 °F 52% 29.99 in 10.0 mi South 12.7 mph - N/A   Clear
4:53 AM 32.0 °F 21.6 °F 15.1 °F 50% 29.98 in 10.0 mi South 15.0 mph - N/A   Clear
5:53 AM 30.9 °F 19.8 °F 15.1 °F 52% 30.00 in 10.0 mi South 16.1 mph - N/A   Clear
6:53 AM 30.0 °F 20.0 °F 17.1 °F 59% 30.03 in 10.0 mi South 12.7 mph - N/A   Clear
7:53 AM 32.0 °F 23.6 °F 19.0 °F 59% 30.01 in 10.0 mi South 10.4 mph - N/A   Clear
8:53 AM 41.0 °F 35.8 °F 21.9 °F 47% 29.98 in 10.0 mi SSE 8.1 mph - N/A   Clear
9:53 AM 42.1 °F 34.9 °F 19.9 °F 41% 29.97 in 10.0 mi South 13.8 mph - N/A   Clear
10:53 AM 46.9 °F - 21.0 °F 36% 29.90 in 10.0 mi SSE 16.1 mph - N/A   Clear
11:53 AM 46.9 °F - 18.0 °F 32% 29.89 in 10.0 mi South 19.6 mph 26.5 mph N/A   Clear
12:53 PM 46.0 °F 38.5 °F 18.0 °F 33% 29.86 in 10.0 mi South 19.6 mph 25.3 mph N/A   Clear
1:53 PM 52.0 °F - 19.0 °F 27% 29.78 in 10.0 mi South 24.2 mph 31.1 mph N/A   Clear
2:53 PM 55.0 °F - 19.9 °F 25% 29.75 in 10.0 mi South 19.6 mph 28.8 mph N/A   Clear
3:53 PM 55.9 °F - 17.1 °F 22% 29.71 in 10.0 mi South 21.9 mph 28.8 mph N/A   Clear
4:53 PM 53.1 °F - 18.0 °F 25% 29.71 in 10.0 mi South 15.0 mph 23.0 mph N/A   Clear
5:53 PM 48.9 °F - 19.0 °F 31% 29.73 in 10.0 mi South 20.7 mph 26.5 mph N/A   Clear
6:53 PM 44.1 °F 35.0 °F 19.9 °F 38% 29.75 in 10.0 mi South 24.2 mph 31.1 mph N/A   Clear
7:53 PM 43.0 °F 34.2 °F 19.9 °F 40% 29.74 in 10.0 mi South 20.7 mph 29.9 mph N/A   Clear
8:53 PM 39.9 °F 30.2 °F 19.9 °F 45% 29.70 in 10.0 mi South 20.7 mph 28.8 mph N/A   Clear
9:53 PM 37.9 °F 29.6 °F 19.9 °F 48% 29.71 in 10.0 mi South 13.8 mph - N/A   Clear
10:53 PM 37.9 °F 29.6 °F 19.9 °F 48% 29.68 in 10.0 mi South 13.8 mph - N/A   Clear
11:53 PM 39.0 °F 29.6 °F 21.9 °F 50% 29.68 in 10.0 mi SSW 18.4 mph 29.9 mph N/A   Clear